TimeCDT,TemperatureF,Dew PointF,Humidity,Sea Level PressureIn,VisibilityMPH,Wind Direction,Wind SpeedMPH,Gust SpeedMPH,PrecipitationIn,Events,Conditions,WindDirDegrees,DateUTC
12:52 AM,44.1,36.0,73,30.23,10.0,NNW,6.9,-,N/A,,Overcast,330,2012-10-07 05:52:00
2:52 AM,43.0,35.1,74,30.23,10.0,NNW,5.8,-,N/A,,Overcast,340,2012-10-07 07:52:00
3:52 AM,43.0,34.0,71,30.25,10.0,NW,5.8,-,N/A,,Overcast,320,2012-10-07 08:52:00
4:52 AM,42.1,33.1,70,30.24,10.0,NNW,6.9,-,N/A,,Overcast,330,2012-10-07 09:52:00
5:52 AM,42.1,34.0,73,30.25,10.0,NW,4.6,-,N/A,,Overcast,320,2012-10-07 10:52:00
6:52 AM,41.0,35.1,79,30.26,10.0,Calm,Calm,-,N/A,,Scattered Clouds,0,2012-10-07 11:52:00
7:52 AM,39.9,36.0,86,30.27,10.0,WNW,3.5,-,N/A,,Clear,300,2012-10-07 12:52:00
8:52 AM,45.0,35.1,68,30.27,-9999.0,NNW,8.1,-,N/A,,Clear,340,2012-10-07 13:52:00
9:52 AM,48.0,33.1,56,30.28,-9999.0,NW,5.8,-,N/A,,Clear,320,2012-10-07 14:52:00
10:52 AM,50.0,32.0,50,30.29,10.0,NW,9.2,-,N/A,,Scattered Clouds,320,2012-10-07 15:52:00
11:52 AM,50.0,30.9,48,30.28,10.0,Calm,Calm,-,N/A,,Mostly Cloudy,0,2012-10-07 16:52:00
12:52 PM,52.0,30.9,45,30.27,10.0,Variable,5.8,-,N/A,,Scattered Clouds,0,2012-10-07 17:52:00
1:52 PM,53.1,30.9,43,30.24,10.0,Variable,6.9,-,N/A,,Scattered Clouds,0,2012-10-07 18:52:00
2:52 PM,54.0,30.9,41,30.22,10.0,Variable,4.6,-,N/A,,Partly Cloudy,0,2012-10-07 19:52:00
3:52 PM,54.0,30.0,40,30.20,10.0,North,8.1,-,N/A,,Clear,360,2012-10-07 20:52:00
4:52 PM,54.0,30.0,40,30.20,10.0,NNE,5.8,-,N/A,,Clear,20,2012-10-07 21:52:00
5:52 PM,51.1,34.0,52,30.20,10.0,NW,3.5,-,N/A,,Clear,320,2012-10-07 22:52:00
7:52 PM,42.1,37.9,85,30.21,10.0,Calm,Calm,-,N/A,,Clear,0,2012-10-08 00:52:00
8:52 PM,41.0,37.0,86,30.22,10.0,Calm,Calm,-,N/A,,Clear,0,2012-10-08 01:52:00
9:52 PM,41.0,37.9,89,30.23,-9999.0,Calm,Calm,-,N/A,,Clear,0,2012-10-08 02:52:00
10:52 PM,41.0,37.9,89,30.22,10.0,Calm,Calm,-,N/A,,Clear,0,2012-10-08 03:52:00
11:52 PM,39.9,37.9,93,30.21,10.0,SSW,3.5,-,N/A,,Clear,200,2012-10-08 04:52:00